La Porte, IN

1:18 AM CST on February 23, 2017 (GMT -0600)
La Porte Municipal

Weather History for KPPO - March, 2013

Change the Weather History Date:

Sunday, March 17, 2013

  Actual Average (KSBN) Record (KSBN)
Temperature  
Mean Temperature 32 °F -  
Max Temperature 36 °F 45 °F 78 °F (2012)
Min Temperature 27 °F 27 °F -3 °F (1900)
Degree Days  
Heating Degree Days 33    
Moisture  
Dew Point 20 °F    
Average Humidity 65    
Maximum Humidity 75    
Minimum Humidity 55    
Precipitation  
Precipitation 0.00 in - - ()
Sea Level Pressure  
Sea Level Pressure 30.13 in    
Wind  
Wind Speed 10 mph (ENE)    
Max Wind Speed 22 mph    
Max Gust Speed 29 mph    
Visibility 10 miles    
Events      
Averages and records for this station are not official NWS values.
T = Trace of Precipitation, MM = Missing Value Source: NWS Daily Summary

Daily Weather History Graph

Daily Weather History Graph

Search for Another Location

Airport or City:

Trip Planner

Search our weather history database for the weather conditions in past years. The results will help you decide how hot, cold, wet, or windy it might be!

Date:

Astronomy

Mar. 17, 2013 Rise Set
Actual Time 6:54 AM CDT 6:56 PM CDT
Civil Twilight 6:27 AM CDT 7:23 PM CDT
Nautical Twilight 5:55 AM CDT 7:56 PM CDT
Astronomical Twilight 5:22 AM CDT 8:28 PM CDT
Moon 10:03 AM CDT (3/17) 12:07 AM CDT (3/17)
Length of Visible Light 12h 56m
Length of Day
12h 01m
Waxing Crescent, 31% of the Moon is Illuminated
Mar 17
Waxing Crescent
Mar 19
First Quarter
Mar 27
Full
Apr 2
Last Quarter
Apr 10
New

Hourly Weather History & Observations

Time (CDT) Temp. Windchill Dew Point Humidity Pressure Visibility Wind Dir Wind Speed Gust Speed Precip Events Conditions
12:15 AM 29.3 °F 23.2 °F 21.0 °F 71% 30.11 in 10.0 mi NW 5.8 mph - N/A   Overcast
12:35 AM 29.1 °F 23.0 °F 20.8 °F 71% 30.11 in 10.0 mi NNW 5.8 mph - N/A   Overcast
12:55 AM 29.3 °F 25.6 °F 20.5 °F 70% 30.11 in 10.0 mi NW 3.5 mph - N/A   Overcast
1:15 AM 29.3 °F 25.6 °F 20.8 °F 71% 30.10 in 10.0 mi NNW 3.5 mph - N/A   Overcast
1:35 AM 29.3 °F 24.3 °F 21.4 °F 72% 30.10 in 10.0 mi NNW 4.6 mph - N/A   Overcast
1:55 AM 29.3 °F 24.3 °F 21.4 °F 72% 30.11 in 10.0 mi NNW 4.6 mph - N/A   Overcast
2:15 AM 30.0 °F 21.1 °F 21.2 °F 70% 30.10 in 10.0 mi NNW 10.4 mph - N/A   Overcast
2:35 AM 30.0 °F 20.0 °F 21.7 °F 71% 30.10 in 10.0 mi North 12.7 mph - N/A   Overcast
2:55 AM 29.8 °F 19.8 °F 21.9 °F 72% 30.10 in 10.0 mi North 12.7 mph 18.4 mph N/A   Overcast
3:15 AM 29.7 °F 20.1 °F 21.2 °F 71% 30.11 in 10.0 mi NNW 11.5 mph - N/A   Overcast
3:35 AM 29.3 °F 18.6 °F 20.5 °F 70% 30.11 in 10.0 mi North 13.8 mph 17.3 mph N/A   Overcast
3:55 AM 29.1 °F 19.4 °F 19.9 °F 69% 30.10 in 10.0 mi North 11.5 mph - N/A   Overcast
4:15 AM 29.3 °F 20.8 °F 19.9 °F 68% 30.10 in 10.0 mi North 9.2 mph - N/A   Overcast
4:35 AM 29.3 °F 20.8 °F 19.8 °F 68% 30.10 in 10.0 mi North 9.2 mph - N/A   Overcast
4:55 AM 29.3 °F 20.8 °F 20.3 °F 69% 30.10 in 10.0 mi North 9.2 mph - N/A   Overcast
5:15 AM 29.7 °F 22.0 °F 20.7 °F 69% 30.11 in 10.0 mi NNE 8.1 mph - N/A   Overcast
5:35 AM 29.7 °F 21.3 °F 20.7 °F 69% 30.12 in 10.0 mi NNE 9.2 mph 17.3 mph N/A   Overcast
5:55 AM 29.7 °F 19.6 °F 20.8 °F 70% 30.13 in 10.0 mi NNE 12.7 mph - N/A   Overcast
6:15 AM 29.3 °F 18.6 °F 20.3 °F 69% 30.14 in 10.0 mi NNE 13.8 mph 18.4 mph N/A   Overcast
6:35 AM 28.9 °F 19.2 °F 19.4 °F 68% 30.16 in 10.0 mi NNE 11.5 mph - N/A   Overcast
6:55 AM 28.8 °F 19.5 °F 18.5 °F 66% 30.17 in 10.0 mi NNE 10.4 mph - N/A   Overcast
7:15 AM 28.8 °F 20.2 °F 18.3 °F 65% 30.17 in 10.0 mi NE 9.2 mph - N/A   Overcast
7:35 AM 28.8 °F 21.7 °F 18.0 °F 64% 30.18 in 10.0 mi NE 6.9 mph - N/A   Overcast
7:55 AM 28.4 °F 21.2 °F 18.1 °F 65% 30.18 in 10.0 mi NE 6.9 mph - N/A   Mostly Cloudy
8:15 AM 29.1 °F 23.0 °F 18.1 °F 64% 30.19 in 10.0 mi ENE 5.8 mph - N/A   Mostly Cloudy
8:35 AM 29.3 °F 21.5 °F 18.5 °F 64% 30.19 in 10.0 mi ENE 8.1 mph - N/A   Overcast
8:55 AM 30.0 °F 21.1 °F 18.5 °F 62% 30.19 in 10.0 mi East 10.4 mph - N/A   Overcast
9:15 AM 30.0 °F 20.0 °F 17.8 °F 60% 30.19 in 10.0 mi ENE 12.7 mph - N/A   Overcast
9:35 AM 30.2 °F 21.3 °F 17.8 °F 60% 30.19 in 10.0 mi East 10.4 mph - N/A   Mostly Cloudy
9:55 AM 31.6 °F 21.6 °F 18.9 °F 59% 30.19 in 10.0 mi East 13.8 mph - N/A   Mostly Cloudy
10:15 AM 31.5 °F 22.3 °F 18.3 °F 58% 30.19 in 10.0 mi East 11.5 mph - N/A   Scattered Clouds
10:35 AM 31.6 °F 21.6 °F 17.6 °F 56% 30.19 in 10.0 mi East 13.8 mph - N/A   Clear
10:55 AM 31.8 °F 23.3 °F 17.6 °F 56% 30.19 in 10.0 mi East 10.4 mph - N/A   Clear
11:15 AM 32.0 °F 22.5 °F 19.4 °F 60% 30.19 in 10.0 mi East 12.7 mph - N/A   Clear
11:35 AM 32.9 °F 23.7 °F 20.3 °F 60% 30.19 in 10.0 mi East 12.7 mph - N/A   Scattered Clouds
11:55 AM 32.4 °F 24.0 °F 20.1 °F 61% 30.19 in 10.0 mi East 10.4 mph - N/A   Mostly Cloudy
12:15 PM 32.9 °F 24.1 °F 20.5 °F 60% 30.19 in 10.0 mi ESE 11.5 mph - N/A   Overcast
12:35 PM 32.0 °F 22.5 °F 21.6 °F 65% 30.19 in 10.0 mi East 12.7 mph - N/A   Overcast
12:55 PM 32.2 °F 23.8 °F 21.0 °F 63% 30.19 in 10.0 mi SE 10.4 mph - N/A   Overcast
1:15 PM 32.0 °F 23.6 °F 21.2 °F 64% 30.19 in 10.0 mi East 10.4 mph - N/A   Overcast
1:35 PM 32.0 °F 23.0 °F 21.0 °F 64% 30.18 in 10.0 mi ESE 11.5 mph 16.1 mph N/A   Overcast
1:55 PM 32.7 °F 23.9 °F 21.2 °F 63% 30.16 in 10.0 mi ESE 11.5 mph - N/A   Overcast
2:15 PM 32.7 °F 23.9 °F 20.5 °F 61% 30.16 in 10.0 mi ESE 11.5 mph 16.1 mph N/A   Overcast
2:35 PM 33.4 °F 25.9 °F 20.1 °F 58% 30.15 in 10.0 mi East 9.2 mph - N/A   Mostly Cloudy
2:55 PM 36.0 °F 27.5 °F 21.2 °F 55% 30.14 in 10.0 mi SE 12.7 mph 17.3 mph N/A   Mostly Cloudy
3:15 PM 34.9 °F 27.1 °F 21.2 °F 57% 30.13 in 10.0 mi SE 10.4 mph - N/A   Scattered Clouds
3:35 PM 35.2 °F 27.6 °F 20.7 °F 55% 30.13 in 10.0 mi ESE 10.4 mph 19.6 mph N/A   Mostly Cloudy
3:55 PM 34.2 °F 25.7 °F 21.0 °F 59% 30.12 in 10.0 mi ESE 11.5 mph - N/A   Mostly Cloudy
4:15 PM 35.4 °F 26.4 °F 21.6 °F 57% 30.11 in 10.0 mi ESE 13.8 mph 18.4 mph N/A   Scattered Clouds
4:35 PM 34.9 °F 26.2 °F 21.4 °F 58% 30.10 in 10.0 mi ESE 12.7 mph - N/A   Clear
4:55 PM 34.9 °F 25.3 °F 21.4 °F 58% 30.09 in 10.0 mi East 15.0 mph - N/A   Clear
5:15 PM 34.7 °F 25.9 °F 21.2 °F 58% 30.10 in 10.0 mi ESE 12.7 mph - N/A   Scattered Clouds
5:35 PM 34.3 °F 26.5 °F 20.8 °F 58% 30.10 in 10.0 mi East 10.4 mph - N/A   Scattered Clouds
5:55 PM 34.0 °F 25.0 °F 20.7 °F 58% 30.10 in 10.0 mi East 12.7 mph - N/A   Clear
6:15 PM 33.6 °F 26.2 °F 20.8 °F 59% 30.10 in 10.0 mi East 9.2 mph - N/A   Clear
6:35 PM 32.9 °F 24.7 °F 20.7 °F 61% 30.11 in 10.0 mi East 10.4 mph - N/A   Clear
6:55 PM 32.2 °F 22.7 °F 21.2 °F 64% 30.11 in 10.0 mi ESE 12.7 mph - N/A   Scattered Clouds
7:15 PM 32.0 °F 22.5 °F 21.7 °F 66% 30.10 in 10.0 mi ESE 12.7 mph - N/A   Mostly Cloudy
7:35 PM 31.6 °F 20.7 °F 22.1 °F 68% 30.10 in 10.0 mi ESE 16.1 mph - N/A   Mostly Cloudy
7:55 PM 31.1 °F 20.9 °F 22.1 °F 69% 30.10 in 10.0 mi ESE 13.8 mph - N/A   Mostly Cloudy
8:15 PM 30.7 °F 19.6 °F 21.6 °F 69% 30.10 in 10.0 mi ESE 16.1 mph 20.7 mph N/A   Overcast
8:35 PM 30.2 °F 19.3 °F 21.6 °F 70% 30.08 in 10.0 mi East 15.0 mph - N/A   Mostly Cloudy
9:15 PM 29.7 °F 17.8 °F 21.0 °F 70% 30.08 in 10.0 mi ESE 17.3 mph 20.7 mph N/A   Mostly Cloudy
9:55 PM 29.1 °F 16.7 °F 20.8 °F 71% 30.08 in 10.0 mi ESE 18.4 mph 24.2 mph N/A   Clear
10:15 PM 28.9 °F 16.9 °F 21.0 °F 72% 30.05 in 10.0 mi East 17.3 mph 26.5 mph N/A   Scattered Clouds
10:35 PM 28.8 °F 16.2 °F 20.7 °F 72% 30.05 in 10.0 mi ESE 18.4 mph 28.8 mph N/A   Clear
10:55 PM 28.4 °F 14.7 °F 20.3 °F 72% 30.05 in 10.0 mi ESE 21.9 mph 27.6 mph N/A   Clear
11:15 PM 28.0 °F 16.5 °F 20.3 °F 73% 30.04 in 10.0 mi ESE 15.0 mph 24.2 mph N/A   Clear
11:35 PM 28.0 °F 17.5 °F 20.3 °F 73% 30.02 in 10.0 mi ESE 12.7 mph - N/A   Clear
11:55 PM 27.7 °F 16.6 °F 20.7 °F 75% 30.03 in 10.0 mi East 13.8 mph - N/A   Clear